This is the latest recevied weather packets stored in our database for station/object OE2ATN. If no packets are shown the sender has not sent any weather packets the latest 10 day(s).
| Time | Temp. | Humidity | Pressure | Rain* | Wind** | Luminosity | Snow |
|---|---|---|---|---|---|---|---|
| 1778128535 | 8.89° C | 61% | 1019.2 hPa | 0 mm | - | - | - |
| 1778128235 | 8.89° C | 60% | 1019.1 hPa | 0 mm | - | - | - |
| 1778127935 | 8.89° C | 60% | 1019.1 hPa | 0 mm | - | - | - |
| 1778127635 | 8.89° C | 57% | 1019.1 hPa | 0 mm | - | - | - |
| 1778127335 | 8.33° C | 53% | 1019.1 hPa | 0 mm | - | - | - |
| 1778127034 | 8.33° C | 48% | 1018.9 hPa | 0 mm | - | - | - |
| 1778126734 | 8.33° C | 47% | 1018.9 hPa | 0 mm | - | - | - |
| 1778126435 | 8.33° C | 48% | 1018.8 hPa | 0 mm | - | - | - |
| 1778126135 | 8.33° C | 49% | 1018.7 hPa | 0 mm | - | - | - |
| 1778125834 | 8.33° C | 50% | 1018.8 hPa | 0 mm | - | - | - |
| 1778125534 | 8.33° C | 51% | 1018.6 hPa | 0 mm | - | - | - |
| 1778125234 | 8.33° C | 55% | 1018.6 hPa | 0 mm | - | - | - |
| 1778124936 | 8.33° C | 56% | 1018.7 hPa | 0 mm | - | - | - |
| 1778124635 | 8.33° C | 50% | 1018.7 hPa | 0 mm | - | - | - |
| 1778124335 | 8.33° C | 51% | 1018.6 hPa | 0 mm | - | - | - |
| 1778124035 | 8.33° C | 55% | 1018.6 hPa | 0 mm | - | - | - |
| 1778123735 | 8.33° C | 53% | 1018.6 hPa | 0 mm | - | - | - |
| 1778123434 | 8.33° C | 56% | 1018.7 hPa | 0 mm | - | - | - |
| 1778123135 | 8.33° C | 56% | 1018.6 hPa | 0 mm | - | - | - |
| 1778122834 | 8.33° C | 58% | 1018.6 hPa | 0 mm | - | - | - |
| 1778122535 | 8.33° C | 61% | 1018.6 hPa | 0 mm | - | - | - |
| 1778122235 | 8.33° C | 58% | 1018.5 hPa | 0 mm | - | - | - |
| 1778121934 | 8.33° C | 58% | 1018.5 hPa | 0 mm | - | - | - |
| 1778121634 | 8.33° C | 57% | 1018.6 hPa | 0 mm | - | - | - |
| 1778121334 | 8.33° C | 56% | 1018.6 hPa | 0 mm | - | - | - |
* Rain latest hour (hover to see other rain measurements)
** Current wind speed in m/s (hover to see current wind gust speed)